Weather in Denisovka

Russia / Komi Republic     66°12′24″N   55°25′40″E
temp.,
°C
wind,
m/s
gust,
m/s
humid.,
%
clouds,
%
prec.,
mm/h
press.,
hPa
HPBL,
m
19 september, sun
sun1900:00+3n91468100 0.0 10191272
03:00+3n81373100 0.0 10201133
06:00+3n81472100 0.0 10201257
09:00+3n91473100 0.0 10211356
12:00+5n91364100 0.0 10221336
15:00+5n91363100 0.0 10231238
18:00+4nne91265100 0.0 10251092
21:00+4nne8116490 0.0 1026950
20 september, mon
mon2000:00+4nne71065100 0.0 1028832
03:00+4nne71066100 0.0 1029687
06:00+4n5969100 0.0 1030557
09:00+5n5763100 0.0 10311123
12:00+6n5658100 0.0 10321230
15:00+6nnw4664100 0.0 1032941
18:00+6nw4767100 0.0 1031213
21:00+4nw488098 0.0 1031201
21 september, tue
tue2100:00+4wnw51085100 0.0 1030298
03:00+4wnw51185100 0.0 1030339
06:00+4nw61184100 0.0 1029374
09:00+5nw5107997 0.0 1029433
12:00+9nw785682 0.0 1028803
15:00+9nnw5859100 0.0 1028818
18:00+7nnw4867100 0.0 1028244
21:00+6nnw4774100 0.0 1028239
22 september, wed
wed2200:00+5nnw4776100 0.0 1028224
03:00+3nnw3685100 0.0 1028122
06:00+3nnw368631 0.0 1029154
09:00+6nnw356715 0.0 1029421
12:00+9nnw34525 0.0 1029702
15:00+9nnw33505 0.0 1028735
18:00+5nnw22695 0.0 102911
21:00+3wsw00785 0.0 102910
23 september, thu
thu2300:00+2sw22810 0.0 102912
03:00+1sw22851 0.0 102814
06:00+1ssw3484100 0.0 102869
09:00+6ssw356542 0.0 1028283
12:00+10ssw565010 0.0 1026618
15:00+10ssw47545 0.0 1025489
18:00+6sse44785 0.0 102542
21:00+5s47915 0.0 102490